Location: �terpigny
(49.8910°N, 2.9249°E)
Time: 23:12:18
(UTC+00:00)

X-37B - Visible Passes

Search period start: 26 January 2022 00:00
Search period end: 05 February 2022 00:00
Orbit: 334 x 337 km, 45.0° (Epoch: 11 January)

Date Brightness Start Highest point End Pass type
(mag) Time Alt. Az. Time Alt. Az. Time Alt. Az.
28 Jan 2.8 17:57:44 10° S 17:58:50 12° SSE 17:59:29 11° SE visible
29 Jan 2.2 18:16:49 10° SSW 18:18:58 19° SSE 18:19:08 19° SSE visible
30 Jan 2.0 18:36:42 10° SW 18:38:45 25° S 18:38:45 25° S visible
31 Jan 2.4 17:22:16 10° SSW 17:24:23 19° SSE 17:26:31 10° ESE visible
31 Jan 2.5 18:56:52 10° WSW 18:58:21 22° SW 18:58:21 22° SW visible
01 Feb 1.9 17:42:08 10° SW 17:44:36 26° S 17:46:43 12° ESE visible
01 Feb 3.3 19:17:12 10° WSW 19:17:57 15° WSW 19:17:57 15° WSW visible
02 Feb 1.7 18:02:18 10° WSW 18:04:51 30° S 18:06:20 18° SE visible
03 Feb 1.9 18:22:37 10° WSW 18:25:07 27° S 18:25:59 23° SSE visible
04 Feb 2.4 18:43:08 10° WSW 18:45:19 20° SSW 18:45:41 19° S visible
